Simultaneous Nadir Overpasses (SNOs) Predictions

Prediction of SNOs between NPP and TERRA Satellite Orbit:

Table of predicted SNOs for the next 14.0 days since TLE Epoch: 11/24/2018
Index Date (NPP) Time (NPP) Lat,Lon (NPP) SZA (NPP ) Date (TERRA) Time (TERRA) Lat,Lon (TERRA) SZA (TERRA ) Distance(km) Time Diff (sec)
1 11/24/2018 10:39:41 -68.39,-161.27 91.14 11/24/2018 10:40:41 -68.39,-161.33 91.14 2.40 60
2 11/24/2018 11:30:25 68.25, 6.21 88.74 11/24/2018 11:30:08 68.28, 6.19 88.76 3.23 17
3 11/24/2018 12:20:57 -67.64, 174.29 91.86 11/24/2018 12:19:46 -67.72, 173.17 91.80 48.40 71
4 11/27/2018 02:56:36 -68.38, -45.49 90.64 11/27/2018 02:57:08 -68.35, -45.49 90.67 3.40 32
5 11/27/2018 03:47:20 68.25, 121.99 89.24 11/27/2018 03:46:35 68.24, 122.03 89.23 1.96 45
6 11/29/2018 18:22:52 68.61, -97.34 90.06 11/29/2018 18:24:02 68.58, -96.95 90.03 16.61 70
7 11/29/2018 19:13:30 -68.31, 70.36 90.24 11/29/2018 19:13:35 -68.30, 70.35 90.25 1.44 5
8 11/29/2018 20:04:14 68.19,-122.17 89.65 11/29/2018 20:03:02 68.19,-122.14 89.64 1.20 72
9 12/02/2018 10:39:43 68.39, 18.71 90.26 12/02/2018 10:40:31 68.42, 18.75 90.28 3.16 48
10 12/02/2018 11:30:24 -68.25,-173.79 89.88 12/02/2018 11:30:02 -68.25,-173.81 89.88 1.02 22
11 12/02/2018 12:20:51 67.21, -5.21 89.10 12/02/2018 12:19:44 67.29, -7.26 89.16 88.96 67
12 12/05/2018 02:06:09 -69.36, -34.14 88.42 12/05/2018 02:07:16 -69.26, -31.94 88.51 87.22 67
13 12/05/2018 02:56:36 68.34, 134.55 90.57 12/05/2018 02:56:58 68.31, 134.51 90.54 3.34 22
14 12/05/2018 03:47:17 -68.19, -57.95 89.58 12/05/2018 03:46:28 -68.20, -57.98 89.57 2.07 49
15 12/07/2018 18:22:47 -68.45, 82.86 89.01 12/07/2018 18:23:57 -68.43, 82.91 89.03 2.61 70
16 12/07/2018 19:13:30 68.28,-109.61 90.83 12/07/2018 19:13:25 68.26,-109.66 90.80 3.35 5
17 12/07/2018 20:04:09 -68.02, 58.03 89.43 12/07/2018 20:02:57 -68.04, 57.72 89.42 12.91 72




NCC Satellite Simultaneous Nadir Overpasses (SNOs) Prediction Service
